This is the latest recevied weather packets stored in our database for station/object N8QF-1. If no packets are shown the sender has not sent any weather packets the latest 1 day(s).
| Time | Temp. | Humidity | Pressure | Rain* | Wind** | Luminosity | Snow |
|---|---|---|---|---|---|---|---|
| 1778010968 | 16.67° C | 86% | 1008.5 hPa | 1.78 mm | 2.68 m/s, 229° | - | - |
| 1778010667 | 17.22° C | 85% | 1008.8 hPa | 0 mm | 2.68 m/s, 210° | - | - |
| 1778010367 | 17.22° C | 83% | 1008.8 hPa | 0 mm | 3.13 m/s, 228° | - | - |
| 1778010066 | 17.22° C | 81% | 1008.9 hPa | 0 mm | 4.02 m/s, 217° | - | - |
| 1778009766 | 17.22° C | 76% | 1008.8 hPa | 0 mm | 4.92 m/s, 224° | - | - |
| 1778009165 | 19.44° C | 64% | 1008.2 hPa | 0 mm | 4.92 m/s, 235° | - | - |
| 1778008864 | 19.44° C | 62% | 1008.1 hPa | 0 mm | 4.02 m/s, 245° | - | - |
| 1778008560 | 20° C | 62% | 1008.1 hPa | 0 mm | 2.68 m/s, 233° | - | - |
| 1778008259 | 20° C | 62% | 1008.1 hPa | 0 mm | 3.13 m/s, 219° | - | - |
| 1778007959 | 20° C | 61% | 1008.2 hPa | 0 mm | 4.02 m/s, 231° | - | - |
| 1778007658 | 19.44° C | 61% | 1008.3 hPa | 0 mm | 4.47 m/s, 219° | - | - |
| 1778007358 | 20° C | 61% | 1008.2 hPa | 0 mm | 4.47 m/s, 239° | - | - |
| 1778007057 | 20° C | 61% | 1008.3 hPa | 0 mm | 2.24 m/s, 217° | - | - |
| 1778006757 | 20° C | 61% | 1008.3 hPa | 0 mm | 3.13 m/s, 207° | - | - |
| 1778006456 | 20° C | 61% | 1008.5 hPa | 0 mm | 3.13 m/s, 208° | - | - |
| 1778006155 | 19.44° C | 61% | 1008.6 hPa | 0 mm | 3.13 m/s, 183° | - | - |
| 1778005855 | 19.44° C | 61% | 1008.5 hPa | 0 mm | 2.68 m/s, 183° | - | - |
| 1778005554 | 19.44° C | 61% | 1008.5 hPa | 0 mm | 3.13 m/s, 188° | - | - |
| 1778004953 | 19.44° C | 61% | 1008.8 hPa | 0 mm | 3.13 m/s, 180° | - | - |
| 1778004654 | 19.44° C | 61% | 1008.8 hPa | 0 mm | 3.13 m/s, 201° | - | - |
| 1778004052 | 19.44° C | 60% | 1008.8 hPa | 0 mm | 2.68 m/s, 201° | - | - |
| 1778003751 | 19.44° C | 60% | 1008.9 hPa | 0 mm | 2.68 m/s, 231° | - | - |
| 1778003451 | 19.44° C | 60% | 1008.9 hPa | 0 mm | 4.47 m/s, 208° | - | - |
| 1778003150 | 19.44° C | 60% | 1008.9 hPa | 0 mm | 4.02 m/s, 203° | - | - |
| 1778002850 | 19.44° C | 60% | 1009 hPa | 0 mm | 3.58 m/s, 201° | - | - |
* Rain latest hour (hover to see other rain measurements)
** Current wind speed in m/s (hover to see current wind gust speed)